This is the latest recevied weather packets stored in our database for station/object SQ6PCH-10. If no packets are shown the sender has not sent any weather packets the latest 10 day(s).
| Time | Temp. | Humidity | Pressure | Rain* | Wind** | Luminosity | Snow |
|---|---|---|---|---|---|---|---|
| 1777691865 | 5° C | 89% | 1010 hPa | - | - | - | - |
| 1777691265 | 5° C | 89% | 1010.1 hPa | - | - | - | - |
| 1777690665 | 5° C | 88% | 1010.2 hPa | - | - | - | - |
| 1777690065 | 5° C | 88% | 1010.2 hPa | - | - | - | - |
| 1777689465 | 5° C | 88% | 1010.1 hPa | - | - | - | - |
| 1777688864 | 5.56° C | 88% | 1010.2 hPa | - | - | - | - |
| 1777688264 | 5.56° C | 88% | 1010.2 hPa | - | - | - | - |
| 1777687664 | 5.56° C | 87% | 1010.1 hPa | - | - | - | - |
| 1777687064 | 5.56° C | 86% | 1010.2 hPa | - | - | - | - |
| 1777686464 | 6.11° C | 85% | 1010.2 hPa | - | - | - | - |
| 1777685864 | 6.11° C | 84% | 1010.2 hPa | - | - | - | - |
| 1777685263 | 6.11° C | 85% | 1010.2 hPa | - | - | - | - |
| 1777684663 | 6.67° C | 83% | 1010.3 hPa | - | - | - | - |
| 1777684063 | 6.67° C | 84% | 1010.2 hPa | - | - | - | - |
| 1777683463 | 6.67° C | 83% | 1010.2 hPa | - | - | - | - |
| 1777682863 | 6.67° C | 82% | 1010.3 hPa | - | - | - | - |
| 1777682263 | 7.22° C | 82% | 1010.3 hPa | - | - | - | - |
| 1777681662 | 7.22° C | 82% | 1010.3 hPa | - | - | - | - |
| 1777681062 | 7.22° C | 80% | 1010.5 hPa | - | - | - | - |
| 1777680462 | 7.78° C | 79% | 1010.4 hPa | - | - | - | - |
| 1777679862 | 7.78° C | 78% | 1010.4 hPa | - | - | - | - |
| 1777679262 | 8.33° C | 77% | 1010.4 hPa | - | - | - | - |
| 1777678662 | 7.78° C | 78% | 1010.4 hPa | - | - | - | - |
| 1777678061 | 8.33° C | 75% | 1010.4 hPa | - | - | - | - |
| 1777677461 | 8.33° C | 75% | 1010.5 hPa | - | - | - | - |
* Rain since midnight (hover to see other rain measurements)
** Current wind speed in m/s (hover to see current wind gust speed)